Regional Weather Roundup
Issued by NWS Cleveland, OH

Home | Current Version | Previous Version | Text Only | Print | Product List | Glossary Off
Versions: 1 2 3 4 5 6 7 8 9 10 11 12 13 14 15 16 17 18 19 20 21 22 23 24 25 26 27 28 29 30 31 32 33 34 35 36 37 38 39 40 41 42 43 44 45 46 47 48 49 50

000
ASUS41 KCLE 281002
RWRCLE
OHIO REGIONAL WEATHER ROUNDUP
NATIONAL WEATHER SERVICE CLEVELAND, OH
600 AM EDT THU MAY 28 2015

NOTE: "FAIR" INDICATES FEW OR NO CLOUDS BELOW 12,000 FEET WITH NO
SIGNIFICANT WEATHER AND/OR OBSTRUCTIONS TO VISIBILITY.

OHZ001>008-015>018-024>027-034-035-043-044-281100-
   NORTHWEST OHIO

CITY           SKY/WX    TMP DP  RH WIND       PRES   REMARKS
DEFIANCE       CLEAR     57  55  93 N3        30.20R
FINDLAY        CLEAR     60  57  89 N3        30.18R
TOLEDO EXPRESS CLEAR     55  53  93 CALM      30.19R
TOLEDO EXEC    CLEAR     60  56  86 N3        30.19R
LIMA           PTCLDY    60  58  92 N6        30.19R
$$

OHZ009>014-019>023-028>033-038-089-281100-
   NORTHEAST OHIO

CITY           SKY/WX    TMP DP  RH WIND       PRES   REMARKS
CLE-HOPKINS    PTCLDY    61  58  90 N8        30.21R FOG
CLE-LAKEFRONT  FAIR      61  57  87 N7        30.19R
CUY CO. ARPT   NOT AVBL
LORAIN-ELYRIA  CLEAR     61  61 100 N7        30.20R
ASHTABULA      CLEAR     59  57  93 N5        30.20R
AKRON-CANTON   PTCLDY    64  61  90 N6        30.19R FOG
WOOSTER        CLEAR     62  61  96 N6        30.20R FOG
MANSFIELD      FOG       61  61 100 MISG      30.20R VSB 1/2
YOUNGSTOWN     CLOUDY    63  61  93 N3        30.19R FOG
$$

OHZ042-051>053-060>062-070>072-077>081-281100-
  SOUTHWEST OHIO

CITY           SKY/WX    TMP DP  RH WIND       PRES   REMARKS
CINC-COVINGTON CLOUDY    64  62  93 VRB5      30.19R FOG
CINC-LUNKEN    MOCLDY    61  61 100 CALM      30.19R
HAMILTON       MOCLDY    59  58  96 CALM      30.19R
DAYTON         MOCLDY    63  62  97 SW5       30.19R FOG
WRIGHT-PAT AFB MOCLDY    62  61  97 SW2       30.17S
DAYTON GENERAL MOCLDY    62  61  96 S6        30.17S
WILMINGTON     MOCLDY    61  58  90 CALM      30.18R
$$

OHZ036-037-039>041-045>050-054>059-063>069-073>076-082>088-281100-
  CENTRAL AND SOUTHEAST OHIO

CITY           SKY/WX    TMP DP  RH WIND       PRES   REMARKS
COLUMBUS       MOCLDY    64  60  87 CALM      30.17R
OSU AIRPORT    PTCLDY    64  61  90 CALM      30.17R
BOLTON FIELD   NOT AVBL
RICKENBACK AFB NOT AVBL
NEWARK         MOCLDY    61  58  90 CALM      30.18R
MARION         FOG       61  59  93 N5        30.19R VSB 1/4
LANCASTER      MOCLDY    60  57  89 CALM      30.18S
ZANESVILLE     NOT AVBL
NEW PHILLY     MOCLDY    63  60  90 CALM      30.19R
$$


USA.gov is the U.S. government's official web portal to all federal, state and local government web resources and services.